AEROCUBE 5C

Last updated on Sun Jun 21 2026 00:03:50 GMT+0000 (Coordinated Universal Time)

1 40965U 15058B 26171.38934752 .00001568 00000+0 14809-3 0 9995 2 40965 64.7662 252.6285 0130892 62.0280 299.4006 14.91464756366134
UTC large
Height (km)
Speed (km/s)
/
Latitude / Longitude
Inclination (degrees)
Orbital Period (minutes)
Azimuth
Elevation
Range (km)
Doppler Factor

Next 0 passes for location: London (51.5072 / 0.1276)

No passes found over London.
AEROCUBE 5C